Location: Augustenthal
(51.7167°N, 10.2833°E)
Time: 20:42:33
(UTC+00:00)

Cosmos 2278 Rocket - Pass Details

Date: 18 May 2021
Orbit: 841 x 845 km, 71.0° (Epoch: 21 June)

Event Time Altitude Azimuth Distance (km) Brightness Sun altitude
Rises 20:20:22 0° 228° (SW) 3,389 5.3 -9.0°
Reaches altitude 10° 20:22:54 10° 234° (SW) 2,457 4.7 -9.2°
Maximum altitude 20:28:21 49° 309° (NW) 1,083 3.3 -9.8°
Drops below altitude 10° 20:33:51 10° 24° (NNE) 2,472 5.0 -10.3°
Sets 20:36:24 0° 30° (NNE) 3,411 5.7 -10.6°
